Change the Weather History Date:

Saturday, June 15, 2013

  Actual Average Record
Temperature  
Mean Temperature 64 °F -  
Max Temperature 75 °F 68 °F 88 °F (1987)
Min Temperature 53 °F 46 °F 32 °F (1968)
Degree Days  
Heating Degree Days 1    
Growing Degree Days 14 (Base 50)    
Moisture  
Dew Point 50 °F    
Average Humidity 64    
Maximum Humidity 86    
Minimum Humidity 41    
Precipitation  
Precipitation 0.02 in - - ()
Sea Level Pressure  
Sea Level Pressure 29.87 in    
Wind  
Wind Speed 3 mph (SW)    
Max Wind Speed 14 mph    
Max Gust Speed -    
Visibility 10 miles    
Events Rain , Thunderstorm    
Averages and records for this station are not official NWS values.
T = Trace of Precipitation, MM = Missing Value Source: NWS Daily Summary

Daily Weather History Graph

Daily Weather History Graph

Search for Another Location

Airport or City:

Trip Planner

Search our weather history database for the weather conditions in past years. The results will help you decide how hot, cold, wet, or windy it might be!

Date:

Astronomy

Jun. 15, 2013 Rise Set
Actual Time 5:13 AM CDT 9:10 PM CDT
Civil Twilight 4:33 AM CDT 9:50 PM CDT
Nautical Twilight 3:38 AM CDT 10:45 PM CDT
Astronomical Twilight 2:12 AM CDT 12:12 AM CDT
Moon 12:14 PM CDT (6/15) 12:22 AM CDT (6/15)
Length of Visible Light 17h 16m
Length of Day
15h 56m
Waxing Crescent, 40% of the Moon is Illuminated
Jun 15
Waxing Crescent
Jun 16
First Quarter
Jun 23
Full
Jun 29
Last Quarter
Jul 8
New

Hourly Weather History & Observations

Time (CDT) Temp. Dew Point Humidity Pressure Visibility Wind Dir Wind Speed Gust Speed Precip Events Conditions
12:53 AM 57.0 °F 39.0 °F 51% 29.89 in 10.0 mi ESE 3.5 mph - N/A   Overcast
1:08 AM 57.2 °F 39.2 °F 51% 29.90 in 10.0 mi SE 5.8 mph - N/A Thunderstorm Overcast
1:53 AM 53.1 °F 48.0 °F 83% 29.91 in 10.0 mi Calm Calm - 0.01 in Thunderstorm Overcast
2:01 AM 53.6 °F 48.2 °F 82% 29.90 in 10.0 mi ESE 3.5 mph - N/A   Overcast
2:53 AM 54.0 °F 48.0 °F 80% 29.90 in 10.0 mi Calm Calm - 0.00 in Rain Light Rain
3:53 AM 55.0 °F 48.9 °F 80% 29.89 in 10.0 mi Calm Calm - 0.01 in Rain Light Rain
4:53 AM 53.1 °F 48.9 °F 86% 29.89 in 10.0 mi ESE 3.5 mph - 0.00 in   Overcast
5:53 AM 54.0 °F 48.9 °F 83% 29.90 in 10.0 mi Calm Calm - N/A   Overcast
6:36 AM 55.4 °F 48.2 °F 77% 29.89 in 10.0 mi Calm Calm - N/A   Overcast
6:53 AM 55.0 °F 48.9 °F 80% 29.89 in 10.0 mi ESE 3.5 mph - N/A   Overcast
7:14 AM 55.4 °F 48.2 °F 77% 29.88 in 10.0 mi Calm Calm - N/A   Scattered Clouds
7:53 AM 57.9 °F 51.1 °F 78% 29.90 in 10.0 mi SSW 3.5 mph - N/A   Scattered Clouds
8:53 AM 64.0 °F 55.0 °F 73% 29.89 in 10.0 mi Calm Calm - N/A   Clear
9:53 AM 71.1 °F 59.0 °F 66% 29.88 in 10.0 mi Variable 6.9 mph - N/A   Clear
10:53 AM 75.0 °F 57.9 °F 55% 29.87 in 10.0 mi NW 10.4 mph - N/A   Clear
11:53 AM 75.0 °F 55.0 °F 50% 29.89 in 10.0 mi WNW 13.8 mph - N/A   Mostly Cloudy
12:53 PM 72.0 °F 52.0 °F 49% 29.88 in 10.0 mi WNW 4.6 mph - N/A   Overcast
1:53 PM 71.1 °F 52.0 °F 51% 29.90 in 10.0 mi West 3.5 mph - N/A   Mostly Cloudy
2:53 PM 71.1 °F 54.0 °F 55% 29.88 in 10.0 mi WNW 9.2 mph - 0.00 in Rain Light Rain
3:53 PM 71.1 °F 52.0 °F 51% 29.88 in 10.0 mi SSW 5.8 mph - 0.00 in   Partly Cloudy
4:53 PM 73.0 °F 51.1 °F 46% 29.85 in 10.0 mi SW 6.9 mph - N/A   Clear
5:53 PM 75.0 °F 50.0 °F 41% 29.84 in 10.0 mi West 4.6 mph - N/A   Clear
6:53 PM 75.0 °F 50.0 °F 41% 29.83 in 10.0 mi Variable 4.6 mph - N/A   Clear
7:53 PM 73.0 °F 48.9 °F 42% 29.81 in 10.0 mi SW 3.5 mph - N/A   Clear
8:53 PM 66.9 °F 51.1 °F 57% 29.81 in 10.0 mi Calm Calm - N/A   Clear
9:53 PM 64.9 °F 48.9 °F 56% 29.81 in 10.0 mi South 3.5 mph - N/A   Clear
10:53 PM 57.0 °F 48.9 °F 74% 29.83 in 10.0 mi Calm Calm - N/A   Partly Cloudy
11:53 PM 54.0 °F 46.9 °F 77% 29.83 in 10.0 mi WSW 3.5 mph - N/A   Scattered Clouds